Home   Weather   Thunder Bay   Past weeks

Flag for Canada Past Weather in Thunder Bay, Ontario, Canada — Yesterday and Last 2 Weeks

32 °F

Passing clouds.

Feels Like: 29 °F
Forecast: 31 / 43 °F
Wind: 3 mph from Southwest

Location: Thunder Bay

Current Time: Oct 21, 2016 at 7:24:19 AM

Latest Report: Oct 21, 2016 at 7:00 AM

Visibility: 15 mi

Pressure: 30.29 "Hg

Humidity: 100%

Dew Point: 32 °F

Location of Thunder BayLocation

Past Weather in Thunder Bay — Graph


Thunder Bay Temperature Yesterday

Maximum temperature yesterday: 45 °F (at 1:00 PM)
Minimum temperature yesterday: 30 °F (at 2:00 AM)
Average temperature yesterday: 38 °F

High & Low Weather Summary for the Past Weeks

High70 °F (Oct 10, 4:00 PM)100% (Oct 7, 12:00 AM)30.49 "Hg (Oct 7, 12:00 AM)
Low27 °F (Oct 9, 3:00 AM)34% (Oct 6, 4:00 PM)29.44 "Hg (Oct 18, 2:00 AM)
Average47 °F78%29.97 "Hg
* Reported Oct 6 6:00 AM — Oct 21 6:00 AM, Thunder Bay, Weather by CustomWeather, © 2016

Note: Actual official high and low records may vary slightly from our data, if they occured in-between our weather recording intervals... More about our weather records


Thunder Bay Weather History for the Previous 24 Hours

Scroll right to see more
Time TempWeatherWind HumidityBarometerVisibility
6:00 AM
Fri, Oct 21
32 °FPassing clouds.3 mph100%30.29 "Hg15 mi
5:00 AM32 °FPassing clouds.3 mph100%30.29 "Hg15 mi
4:00 AM30 °FPassing clouds.5 mph100%30.29 "Hg15 mi
3:00 AM30 °FPassing clouds.3 mph100%30.30 "Hg15 mi
2:00 AM30 °FPassing clouds.2 mph100%30.29 "Hg15 mi
1:00 AM30 °FPassing clouds.2 mph93%30.30 "Hg15 mi
12:00 AM32 °FPassing clouds.3 mph100%30.30 "Hg15 mi
11:00 PM
Thu, Oct 20
36 °FPassing clouds.5 mph87%30.30 "Hg15 mi
10:00 PM36 °FPassing clouds.3 mph87%30.29 "Hg15 mi
9:00 PM39 °FPartly cloudy.2 mph81%30.29 "Hg15 mi
8:00 PM41 °FPassing clouds.No wind70%30.30 "Hg15 mi
7:00 PM43 °FPassing clouds.2 mph61%30.29 "Hg20 mi
6:00 PM43 °FMore clouds than sun.5 mph61%30.28 "Hg20 mi
5:00 PM45 °FPartly sunny.3 mph49%30.27 "Hg20 mi
4:00 PM45 °FPartly sunny.6 mph49%30.27 "Hg20 mi
3:00 PM45 °FOvercast.8 mph49%30.28 "Hg20 mi
2:00 PM43 °FMore clouds than sun.6 mph61%30.28 "Hg20 mi
1:00 PM45 °FMore clouds than sun.10 mph61%30.29 "Hg20 mi
12:00 PM43 °FMore clouds than sun.6 mph71%30.28 "Hg20 mi
11:00 AM41 °FPartly sunny.5 mph81%30.28 "Hg20 mi
10:00 AM39 °FOvercast.5 mph81%30.27 "Hg20 mi
9:00 AM37 °FPartly sunny.6 mph87%30.27 "Hg20 mi
8:02 AM36 °FOvercast.6 mph93%30.27 "Hg20 mi
7:00 AM36 °FOvercast.5 mph93%30.26 "Hg15 mi
Weather by CustomWeather, © 2016

See weather overviewHow to use our weather pages